Location: Castiglione Fibocchi
(43.5333°N, 11.7667°E)
Time: 09:31:49
(UTC+00:00)

Cosmos 2084 - Pass Details

Date: 15 August 2020
Orbit: 569 x 613 km, 62.8° (Epoch: 18 September)

Event Time Altitude Azimuth Distance (km) Brightness Sun altitude
Exits shadow 02:28:48 27° 274° (W) 1,151 4.5 -17.8°
Maximum altitude 02:30:21 36° 316° (NW) 954 4.4 -17.6°
Drops below altitude 10° 02:34:29 10° 24° (NNE) 1,963 7.1 -17.1°
Sets 02:36:55 0° 33° (NNE) 2,876 8.4 -16.7°
